SRR67 EHAM-EKCH

Flight info

Callsign SRR67
Flight time N/A
Altitude 33000
Route ANDIK N873 JUIST DCT ROCZO DCT DOSUR DCT TALSA P729 TUDLO
Aircraft B77L/H-SDE1E2E3FGHIJ2J3J4J5M1RWXY/LB1D1

Departure

Time N/A
Airport Amsterdam Airport Schiphol (EHAM)

Arrival

Time 2026-04-24 18:57
Airport Copenhagen Kastrup Airport (EKCH)
Time Latitude Longitude Altitude Speed Heading
2026-04-24 17:11 52.29481 4.76112 3 ft 0 kts 148°
2026-04-24 18:54 55.50919 12.47572 2000 ft 253 kts 37°
2026-04-24 18:55 55.53397 12.51389 1603 ft 216 kts 37°
2026-04-24 18:55 55.54471 12.53043 1300 ft 197 kts 37°
2026-04-24 18:55 55.55819 12.55115 959 ft 193 kts 38°
2026-04-24 18:56 55.56479 12.56133 758 ft 182 kts 39°
2026-04-24 18:56 55.57381 12.57529 520 ft 161 kts 38°
2026-04-24 18:56 55.58198 12.58777 259 ft 156 kts 37°
2026-04-24 18:56 55.59000 12.60006 114 ft 146 kts 40°
2026-04-24 18:57 55.59711 12.61099 28 ft 121 kts 41°
2026-04-24 18:57 55.60230 12.61909 28 ft 77 kts 41°
2026-04-24 18:57 55.60514 12.62349 29 ft 33 kts 41°
2026-04-24 18:57 55.60598 12.62502 31 ft 14 kts 52°
2026-04-24 18:58 55.60645 12.62652 29 ft 14 kts 66°
2026-04-24 18:58 55.60679 12.62813 28 ft 14 kts 70°
2026-04-24 18:58 55.60712 12.62978 28 ft 14 kts 70°
2026-04-24 18:58 55.60745 12.63143 28 ft 14 kts 72°
2026-04-24 18:59 55.60774 12.63309 28 ft 14 kts 72°
2026-04-24 18:59 55.60806 12.63474 28 ft 14 kts 71°
2026-04-24 18:59 55.60857 12.63619 28 ft 14 kts 42°
2026-04-24 18:59 55.60939 12.63716 28 ft 14 kts 32°
2026-04-24 19:00 55.61022 12.63811 28 ft 14 kts 33°
2026-04-24 19:00 55.61104 12.63906 28 ft 14 kts 33°
2026-04-24 19:00 55.61186 12.64001 28 ft 14 kts 33°
2026-04-24 19:00 55.61269 12.64097 28 ft 14 kts 33°
2026-04-24 19:01 55.61351 12.64192 28 ft 14 kts 32°
2026-04-24 19:01 55.61435 12.64286 28 ft 14 kts 32°
2026-04-24 19:01 55.61516 12.64380 28 ft 14 kts 34°
2026-04-24 19:01 55.61598 12.64476 28 ft 14 kts 32°
2026-04-24 19:02 55.61681 12.64570 28 ft 14 kts 32°
2026-04-24 19:02 55.61765 12.64664 28 ft 14 kts 33°
2026-04-24 19:02 55.61846 12.64760 28 ft 14 kts 33°
2026-04-24 19:02 55.61929 12.64853 28 ft 14 kts 32°
2026-04-24 19:03 55.62005 12.64961 28 ft 14 kts 60°
2026-04-24 19:03 55.61973 12.65119 27 ft 14 kts 123°
2026-04-24 19:03 55.61918 12.65268 26 ft 14 kts 123°
2026-04-24 19:03 55.61864 12.65415 27 ft 14 kts 123°
2026-04-24 19:04 55.61809 12.65564 28 ft 14 kts 123°
2026-04-24 19:04 55.61754 12.65713 29 ft 14 kts 123°
2026-04-24 19:04 55.61691 12.65881 30 ft 21 kts 123°
2026-04-24 19:04 55.61610 12.66098 30 ft 21 kts 124°
2026-04-24 19:05 55.61528 12.66315 28 ft 21 kts 124°
2026-04-24 19:05 55.61446 12.66532 27 ft 21 kts 121°
2026-04-24 19:05 55.61368 12.66750 28 ft 21 kts 124°
2026-04-24 19:05 55.61290 12.66960 29 ft 9 kts 123°
2026-04-24 19:06 55.61284 12.66978 29 ft 0 kts 118°
2026-04-24 19:06 55.61280 12.67018 29 ft 5 kts 87°
2026-04-24 19:06 55.61295 12.67071 29 ft 5 kts 40°
2026-04-24 19:06 55.61330 12.67110 29 ft 7 kts 26°
2026-04-24 19:07 55.61388 12.67132 28 ft 9 kts
2026-04-24 19:07 55.61450 12.67119 28 ft 9 kts 349°
2026-04-24 19:07 55.61511 12.67098 28 ft 9 kts 349°
2026-04-24 19:07 55.61572 12.67077 28 ft 9 kts 349°
2026-04-24 19:08 55.61633 12.67055 28 ft 9 kts 348°
2026-04-24 19:08 55.61692 12.67056 28 ft 9 kts 40°
2026-04-24 19:08 55.61710 12.67123 28 ft 0 kts 77°
2026-04-24 19:08 55.61710 12.67125 28 ft 0 kts 77°
2026-04-24 19:09 55.61714 12.67162 28 ft 5 kts 79°
2026-04-24 19:09 55.61717 12.67191 28 ft 0 kts 79°